Regional Weather Roundup
Issued by NWS

Home | Current Version | Previous Version | Text Only | Print | Product List | Glossary Off
Versions: 1 2 3 4 5 6 7 8 9 10 11 12 13 14 15 16 17 18 19 20 21 22 23 24 25 26 27 28

000
ASUS45 KCYS 070110
RWRWY

WYOMING REGIONAL WEATHER ROUNDUP
NATIONAL WEATHER SERVICE CHEYENNE WY
600 PM MST TUE DEC 06 2016

NOTE:  "FAIR" INDICATES FEW OR NO CLOUDS BELOW 12,000 FEET
WITH NO SIGNIFICANT WEATHER AND/OR OBSTRUCTIONS TO VISIBILITY.

WYZ001-070200-
YELLOWSTONE NATIONAL PARK

CITY           SKY/WX    TMP DP  RH WIND       PRES   REMARKS
LK YELLOWSTONE   N/A      6   1  80 W6        29.71R WCI  -4
W YELLOWSTONE  NOT AVBL

$$
WYZ002>013-054>058-071-098>099-070200-
NORTHERN WYOMING

CITY           SKY/WX    TMP DP  RH WIND       PRES   REMARKS
JACKSON        CLOUDY     1   0  92 CALM      29.79R
CODY           FLURRIES   7   3  84 NE9       29.94R WCI  -7
GREYBULL       FAIR      13   4  67 NW16      29.98R WCI  -3
WORLAND        FAIR       7   3  84 SW3       29.96R
SHERIDAN       CLOUDY     9   2  73 NW12      30.06R WCI  -6
BUFFALO        CLOUDY     6   0  76 NW10      29.98R WCI  -9
GILLETTE       FAIR       0  -3  87 NW8       29.99S WCI -14
HULETT         FAIR       3  -2  78 NW8       30.02R WCI -10
NEWCASTLE      FAIR       5  -2  72 N13       30.00S WCI -12

$$
WYZ014>020-022>026-101>103-070200-
CENTRAL WYOMING

CITY           SKY/WX    TMP DP  RH WIND       PRES   REMARKS
BIG PINEY      FLURRIES   6  -1  73 NW3       29.76R
PINEDALE       MOCLDY     7  -2  66 W7        29.77R WCI  -5
DUBOIS         CLOUDY     9  -4  56 SE8       29.73R WCI  -4
LANDER         FAIR      13  -1  54 NW3       29.83R
RIVERTON       FAIR      11   0  61 N8        29.84R WCI  -1
CASPER         FAIR       0  -3  87 N12       29.90R WCI -17
DOUGLAS        FAIR       4   0  83 CALM      29.95R

$$
WYZ021-027>030-104>119-070200-
SOUTHERN WYOMING

CITY           SKY/WX    TMP DP  RH WIND       PRES   REMARKS
EVANSTON       FAIR       6  -1  73 E7        29.74R WCI  -6
FORT BRIDGER   MOCLDY     6   3  86 W3        29.79R
ROCK SPRINGS   LGT SNOW  13   8  81 W6        29.76R WCI   4
DIXON          LGT SNOW  19  16  85 CALM      29.75S
RAWLINS        CLOUDY    11  -3  53 NE7       29.74S WCI   0
SARATOGA       LGT SNOW  14  10  85 CALM      29.73R
LARAMIE        LGT SNOW  11   7  84 SE13      29.72R FOG     WCI  -4
CHEYENNE       LGT SNOW  16   9  74 E9        29.82R WCI   4
TORRINGTON     MOCLDY    15   4  61 NE9       29.97R WCI   3
PINE BLUFFS    CLOUDY    21  -4  33 NE12      29.89R WCI   9

$$




USA.gov is the U.S. government's official web portal to all federal, state and local government web resources and services.